Tracking 29093 objects as of 15-Jul-2024
HD Live streaming from Space Station
objects crossing your sky now

COSMOS 1247

Track COSMOS 1247 now!
COSMOS 1247 is classified as:


NORAD ID: 12303
Int'l Code: 1981-016A
Perigee: 3,124.0 km
Apogee: 36,917.3 km
Inclination: 67.9 °
Period: 711.1 minutes
Semi major axis: 26391 km
RCS: 8.0719 m2 (large)
Launch date: February 19, 1981
Source: Commonwealth of Independent States (former USSR) (CIS)
Launch site: PLESETSK MISSILE AND SPACE COMPLEX (PKMTR)
Your satellite tracking list
Your tracking list is empty




NASA's NSSDC Master Catalog

Two Line Element Set (TLE):
1 12303U 81016A   24196.40304237 -.00000034  00000-0  00000-0 0  9998
2 12303  67.9084  45.3187 6402284 359.0564   0.2867  2.02490210320942
Source of the keplerian elements: AFSPC